Tracking 22779 objects as of 15-Apr-2021
HD Live streaming from Space Station
objects crossing your sky now

METEOR 2-17 DEB

Track METEOR 2-17 DEB now!
10-day predictions


NORAD ID: 29300
Int'l Code: 1988-005P
Perigee: 899.4 km
Apogee: 943.9 km
Inclination: 82.5 °
Period: 103.3 minutes
Semi major axis: 7292 km
RCS: 0.0063 m2 (small)
Launch date: January 30, 1988
Source: Commonwealth of Independent States (former USSR) (CIS)
Launch site: PLESETSK MISSILE AND SPACE COMPLEX (PKMTR)

Note: This is SATELLITE DEBRIS
aabbcc
Your satellite tracking list
Your tracking list is empty




NASA's NSSDC Master Catalog

Two Line Element Set (TLE):
1 29300U 88005P   21104.04005964 -.00000474  00000-0 -36888-3 0  9994
2 29300  82.5417 359.4582 0030544 354.3564   5.7252 13.94037968754866
Source of the keplerian elements: AFSPC